Location: Newark
(42.9858°N, 0.6717°E)
Time: 23:18:10
(UTC+00:00)

S-56A Canister/Altair - Pass Details

Date: 22 November 2019
Orbit: 633 x 2499 km, 38.9° (Epoch: 10 December)

Event Time Altitude Azimuth Distance (km) Brightness Sun altitude
Rises 22:01:07 0° 274° (W) 3,743 - -58.7°
Reaches altitude 10° 22:05:33 10° 249° (WSW) 2,448 - -59.4°
Maximum altitude 22:08:00 13° 222° (SW) 2,084 - -59.7°
Drops below altitude 10° 22:10:13 10° 194° (SSW) 2,164 - -60.0°
Sets 22:13:39 0° 165° (SSE) 2,946 - -60.5°
